JBU1782 KVPS-KBOS

Flight info

Callsign JBU1782
Flight time 2h 37m
Altitude 35000
Route IDGES CORKY ALLMA TEEEM Q99 POLYY DADDS Q87 NOWAE/N0447F370 Q87 GEARS BBOBO Q22 RBV Q419 JFK ROBUC3
Aircraft A320/M-SDE3FGHIRWY/LB1

Departure

Time 2026-05-04 21:08
Airport Destin-Fort Walton Beach Airport (KVPS)

Arrival

Time 2026-05-04 23:45
Airport Boston Logan International Airport (KBOS)
Time Latitude Longitude Altitude Speed Heading
2026-05-04 19:59 30.49394 -86.54998 95 ft 0 kts 45°
2026-05-04 20:58 30.49388 -86.55004 96 ft 4 kts 46°
2026-05-04 20:58 30.49372 -86.55025 95 ft 2 kts 46°
2026-05-04 20:59 30.49359 -86.55045 94 ft 4 kts 95°
2026-05-04 20:59 30.49369 -86.55060 94 ft 4 kts 180°
2026-05-04 20:59 30.49389 -86.55059 94 ft 0 kts 181°
2026-05-04 21:02 30.49380 -86.55059 96 ft 2 kts 181°
2026-05-04 21:02 30.49359 -86.55060 89 ft 4 kts 181°
2026-05-04 21:03 30.49339 -86.55055 92 ft 3 kts 149°
2026-05-04 21:03 30.49328 -86.55024 96 ft 5 kts 108°
2026-05-04 21:03 30.49320 -86.54996 95 ft 3 kts 110°
2026-05-04 21:03 30.49298 -86.54983 95 ft 4 kts 169°
2026-05-04 21:04 30.49262 -86.54983 96 ft 6 kts 179°
2026-05-04 21:04 30.49220 -86.54988 96 ft 6 kts 191°
2026-05-04 21:04 30.49180 -86.55001 97 ft 6 kts 204°
2026-05-04 21:04 30.49148 -86.55021 99 ft 5 kts 209°
2026-05-04 21:05 30.49121 -86.55038 101 ft 4 kts 209°
2026-05-04 21:05 30.49098 -86.55054 101 ft 4 kts 211°
2026-05-04 21:05 30.49078 -86.55067 102 ft 3 kts 211°
2026-05-04 21:05 30.49061 -86.55078 102 ft 3 kts 210°
2026-05-04 21:06 30.49043 -86.55090 103 ft 3 kts 210°
2026-05-04 21:06 30.49019 -86.55106 103 ft 5 kts 209°
2026-05-04 21:06 30.48982 -86.55130 103 ft 7 kts 210°
2026-05-04 21:06 30.48930 -86.55165 103 ft 10 kts 210°
2026-05-04 21:07 30.48859 -86.55188 102 ft 11 kts 143°
2026-05-04 21:07 30.48769 -86.55013 106 ft 54 kts 120°
2026-05-04 21:07 30.48478 -86.54413 102 ft 112 kts 120°
2026-05-04 21:07 30.48018 -86.53480 101 ft 156 kts 120°
2026-05-04 21:08 30.47431 -86.52280 306 ft 175 kts 123°
2026-05-04 21:08 30.46832 -86.51079 936 ft 170 kts 126°
2026-05-04 21:08 30.46241 -86.49871 1407 ft 179 kts 123°
2026-05-04 21:08 30.45592 -86.48533 1623 ft 203 kts 118°
2026-05-04 21:09 30.45449 -86.46845 1945 ft 225 kts 75°
2026-05-04 21:09 30.46374 -86.45376 2420 ft 236 kts 32°
2026-05-04 21:09 30.47937 -86.44923 3063 ft 234 kts 353°
2026-05-04 21:09 30.49545 -86.45268 3685 ft 241 kts 344°
2026-05-04 21:10 30.51235 -86.45827 4007 ft 265 kts 342°
2026-05-04 21:10 30.53033 -86.46463 4687 ft 273 kts 342°
2026-05-04 21:10 30.54868 -86.47093 5515 ft 276 kts 343°
2026-05-04 21:10 30.56736 -86.47702 6250 ft 281 kts 344°
2026-05-04 21:11 30.58642 -86.48295 7007 ft 285 kts 344°
2026-05-04 21:11 30.60574 -86.48874 7787 ft 288 kts 343°
2026-05-04 21:11 30.62525 -86.49445 8566 ft 291 kts 343°
2026-05-04 21:11 30.64493 -86.50014 9355 ft 292 kts 343°
2026-05-04 21:12 30.66472 -86.50585 10094 ft 294 kts 343°
2026-05-04 21:12 30.68538 -86.51099 10357 ft 316 kts 350°
2026-05-04 21:12 30.70818 -86.51233 10487 ft 340 kts 358°
2026-05-04 21:12 30.73248 -86.51222 10799 ft 353 kts 358°
2026-05-04 21:13 30.75684 -86.51213 11657 ft 349 kts 358°
2026-05-04 21:13 30.78105 -86.50941 12335 ft 354 kts 13°
2026-05-04 21:13 30.80376 -86.49796 12949 ft 361 kts 32°
2026-05-04 21:13 30.82230 -86.47809 13556 ft 367 kts 52°
2026-05-04 21:14 30.83429 -86.45180 14132 ft 372 kts 72°
2026-05-04 21:14 30.84047 -86.42251 14652 ft 375 kts 77°
2026-05-04 21:14 30.84619 -86.39270 15164 ft 379 kts 77°
2026-05-04 21:14 30.85195 -86.36255 15663 ft 384 kts 77°
2026-05-04 21:15 30.85780 -86.33209 16158 ft 388 kts 77°
2026-05-04 21:15 30.86373 -86.30130 16648 ft 392 kts 77°
2026-05-04 21:15 30.86975 -86.27019 17158 ft 396 kts 76°
2026-05-04 21:15 30.87585 -86.23877 17656 ft 400 kts 76°
2026-05-04 21:16 30.88199 -86.20702 18160 ft 404 kts 76°
2026-05-04 21:16 30.88816 -86.17493 18611 ft 408 kts 76°
2026-05-04 21:16 30.89439 -86.14253 19068 ft 412 kts 76°
2026-05-04 21:16 30.90064 -86.10982 19538 ft 416 kts 76°
2026-05-04 21:17 30.90685 -86.07725 20019 ft 419 kts 76°
2026-05-04 21:17 30.91328 -86.04358 20485 ft 423 kts 76°
2026-05-04 21:17 30.91970 -86.00997 20929 ft 427 kts 76°
2026-05-04 21:17 30.92607 -85.97650 21363 ft 431 kts 75°
2026-05-04 21:18 30.93267 -85.94180 21803 ft 435 kts 75°
2026-05-04 21:18 30.93927 -85.90726 22224 ft 439 kts 75°
2026-05-04 21:18 30.94584 -85.87289 22617 ft 442 kts 75°
2026-05-04 21:18 30.95253 -85.83774 23040 ft 446 kts 75°
2026-05-04 21:19 30.95926 -85.80229 23454 ft 450 kts 75°
2026-05-04 21:19 30.96603 -85.76651 23808 ft 454 kts 74°
2026-05-04 21:19 30.97281 -85.73052 24164 ft 457 kts 74°
2026-05-04 21:19 30.97963 -85.69417 24477 ft 461 kts 74°
2026-05-04 21:20 30.98650 -85.65758 24806 ft 464 kts 74°
2026-05-04 21:20 30.99342 -85.62071 25142 ft 467 kts 74°
2026-05-04 21:20 31.00036 -85.58363 25463 ft 470 kts 74°
2026-05-04 21:20 31.00734 -85.54629 25806 ft 473 kts 74°
2026-05-04 21:21 31.01435 -85.50872 26132 ft 476 kts 74°
2026-05-04 21:21 31.02139 -85.47090 26440 ft 479 kts 74°
2026-05-04 21:21 31.02845 -85.43283 26747 ft 482 kts 74°
2026-05-04 21:21 31.03553 -85.39461 27076 ft 485 kts 74°
2026-05-04 21:22 31.04267 -85.35608 27369 ft 488 kts 74°
2026-05-04 21:22 31.04988 -85.31733 27661 ft 490 kts 74°
2026-05-04 21:22 31.05713 -85.27833 27942 ft 493 kts 74°
2026-05-04 21:22 31.06439 -85.23910 28264 ft 496 kts 74°
2026-05-04 21:23 31.07166 -85.19963 28545 ft 499 kts 74°
2026-05-04 21:23 31.07897 -85.15992 28828 ft 502 kts 74°
2026-05-04 21:23 31.08632 -85.11999 29109 ft 505 kts 74°
2026-05-04 21:23 31.09366 -85.07981 29391 ft 508 kts 74°
2026-05-04 21:24 31.10101 -85.03940 29679 ft 511 kts 74°
2026-05-04 21:24 31.10841 -84.99877 29982 ft 513 kts 74°
2026-05-04 21:24 31.11582 -84.95808 30342 ft 512 kts 74°
2026-05-04 21:24 31.12319 -84.91750 30687 ft 512 kts 74°
2026-05-04 21:25 31.13056 -84.87686 31046 ft 511 kts 74°
2026-05-04 21:25 31.13789 -84.83628 31412 ft 510 kts 73°
2026-05-04 21:25 31.14519 -84.79578 31843 ft 509 kts 73°
2026-05-04 21:25 31.15246 -84.75540 32236 ft 508 kts 73°
2026-05-04 21:26 31.15972 -84.71508 32598 ft 507 kts 73°
2026-05-04 21:26 31.16697 -84.67483 32967 ft 506 kts 73°
2026-05-04 21:26 31.17422 -84.63461 33330 ft 506 kts 73°
2026-05-04 21:26 31.18144 -84.59438 33669 ft 506 kts 73°
2026-05-04 21:27 31.18865 -84.55416 34010 ft 506 kts 73°
2026-05-04 21:27 31.19339 -84.52759 34205 ft 506 kts 73°
2026-05-04 21:27 31.20053 -84.48739 34484 ft 505 kts 73°
2026-05-04 21:27 31.20764 -84.44720 34757 ft 505 kts 73°
2026-05-04 21:28 31.21474 -84.40703 34984 ft 505 kts 73°
2026-05-04 21:28 31.22186 -84.36674 35044 ft 508 kts 73°
2026-05-04 21:28 31.23636 -84.28495 35058 ft 519 kts 73°
2026-05-04 21:29 31.25100 -84.20207 35053 ft 522 kts 74°
2026-05-04 21:29 31.26552 -84.11882 35055 ft 523 kts 74°
2026-05-04 21:30 31.28006 -84.03539 35070 ft 527 kts 74°
2026-05-04 21:30 31.29473 -83.95126 35077 ft 530 kts 74°
2026-05-04 21:31 31.31669 -83.82448 35072 ft 531 kts 75°
2026-05-04 21:32 31.33127 -83.73979 35078 ft 531 kts 75°
2026-05-04 21:32 31.34583 -83.65501 35082 ft 532 kts 75°
2026-05-04 21:33 31.36029 -83.57013 35087 ft 532 kts 75°
2026-05-04 21:33 31.37467 -83.48543 35065 ft 530 kts 76°
2026-05-04 21:34 31.38904 -83.40074 35058 ft 531 kts 76°
2026-05-04 21:34 31.40346 -83.31533 35065 ft 532 kts 76°
2026-05-04 21:35 31.41770 -83.23035 35075 ft 532 kts 76°
2026-05-04 21:35 31.43182 -83.14583 35090 ft 533 kts 76°
2026-05-04 21:36 31.44597 -83.06067 35094 ft 533 kts 76°
2026-05-04 21:36 31.46010 -82.97557 35084 ft 533 kts 76°
2026-05-04 21:37 31.47417 -82.89031 35086 ft 533 kts 76°
2026-05-04 21:37 31.48818 -82.80500 35090 ft 533 kts 77°
2026-05-04 21:38 31.50207 -82.71965 35090 ft 533 kts 77°
2026-05-04 21:38 31.51593 -82.63424 35088 ft 534 kts 77°
2026-05-04 21:39 31.53563 -82.55101 35092 ft 527 kts 62°
2026-05-04 21:39 31.57338 -82.47902 35086 ft 513 kts 43°
2026-05-04 21:40 31.62442 -82.42264 35080 ft 500 kts 32°
2026-05-04 21:40 31.67812 -82.37067 35076 ft 501 kts 32°
2026-05-04 21:41 31.73190 -82.31843 35070 ft 502 kts 33°
2026-05-04 21:41 31.78572 -82.26594 35074 ft 503 kts 33°
2026-05-04 21:42 31.83951 -82.21335 35131 ft 503 kts 33°
2026-05-04 21:42 31.89309 -82.16099 35079 ft 499 kts 33°
2026-05-04 21:43 31.94654 -82.10896 35079 ft 498 kts 33°
2026-05-04 21:43 31.99989 -82.05672 35080 ft 499 kts 33°
2026-05-04 21:44 32.05310 -82.00435 35084 ft 499 kts 34°
2026-05-04 21:44 32.10635 -81.95190 35109 ft 498 kts 34°
2026-05-04 21:45 32.16176 -81.90411 35096 ft 487 kts 21°
2026-05-04 21:45 32.22201 -81.86870 35091 ft 483 kts 19°
2026-05-04 21:46 32.28225 -81.83353 35088 ft 483 kts 20°
2026-05-04 21:46 32.34239 -81.79820 35089 ft 482 kts 20°
2026-05-04 21:47 32.40224 -81.76279 35053 ft 479 kts 20°
2026-05-04 21:47 32.46175 -81.72768 35057 ft 478 kts 20°
2026-05-04 21:48 32.52134 -81.69260 35058 ft 478 kts 20°
2026-05-04 21:48 32.58087 -81.65738 35087 ft 478 kts 20°
2026-05-04 21:49 32.64039 -81.62198 35109 ft 479 kts 20°
2026-05-04 21:49 32.69989 -81.58668 35101 ft 478 kts 20°
2026-05-04 21:50 32.75941 -81.55136 35089 ft 478 kts 20°
2026-05-04 21:50 32.81887 -81.51599 35082 ft 478 kts 20°
2026-05-04 21:51 32.87836 -81.48068 35098 ft 478 kts 20°
2026-05-04 21:51 32.93786 -81.44521 35087 ft 478 kts 20°
2026-05-04 21:52 32.99736 -81.40962 35081 ft 478 kts 20°
2026-05-04 21:52 33.05675 -81.37402 35082 ft 478 kts 20°
2026-05-04 21:53 33.11618 -81.33837 35082 ft 478 kts 20°
2026-05-04 21:53 33.17560 -81.30267 35078 ft 478 kts 20°
2026-05-04 21:54 33.23503 -81.26697 35073 ft 478 kts 20°
2026-05-04 21:54 33.29449 -81.23113 35072 ft 479 kts 20°
2026-05-04 21:55 33.35402 -81.19524 35077 ft 479 kts 20°
2026-05-04 21:55 33.41356 -81.15934 35076 ft 480 kts 21°
2026-05-04 21:56 33.47318 -81.12325 35066 ft 480 kts 21°
2026-05-04 21:56 33.53281 -81.08702 35056 ft 480 kts 21°
2026-05-04 21:57 33.59244 -81.05084 35055 ft 480 kts 21°
2026-05-04 21:57 33.65210 -81.01472 35060 ft 480 kts 21°
2026-05-04 21:58 33.71157 -80.97853 35061 ft 479 kts 21°
2026-05-04 21:58 33.77097 -80.94228 35052 ft 479 kts 21°
2026-05-04 21:59 33.83041 -80.90599 35036 ft 479 kts 21°
2026-05-04 21:59 33.88629 -80.86098 35055 ft 488 kts 33°
2026-05-04 22:00 33.93977 -80.81078 35040 ft 487 kts 32°
2026-05-04 22:00 33.99329 -80.76070 35037 ft 487 kts 33°
2026-05-04 22:01 34.04668 -80.71052 35040 ft 487 kts 33°
2026-05-04 22:01 34.09975 -80.66050 35043 ft 487 kts 33°
2026-05-04 22:02 34.15354 -80.60976 35079 ft 487 kts 33°
2026-05-04 22:02 34.20655 -80.55970 35072 ft 487 kts 33°
2026-05-04 22:03 34.25980 -80.50929 35062 ft 486 kts 33°
2026-05-04 22:03 34.31334 -80.45960 35060 ft 485 kts 32°
2026-05-04 22:04 34.36707 -80.41038 35084 ft 484 kts 32°
2026-05-04 22:04 34.42073 -80.36108 35079 ft 484 kts 32°
2026-05-04 22:05 34.47422 -80.31155 35078 ft 484 kts 32°
2026-05-04 22:05 34.52765 -80.26194 35071 ft 484 kts 32°
2026-05-04 22:06 34.58098 -80.21236 35068 ft 483 kts 32°
2026-05-04 22:06 34.63438 -80.16267 35072 ft 483 kts 32°
2026-05-04 22:07 34.68779 -80.11296 35059 ft 484 kts 32°
2026-05-04 22:07 34.74115 -80.06321 35053 ft 484 kts 32°
2026-05-04 22:08 34.79456 -80.01333 35050 ft 485 kts 35°
2026-05-04 22:08 34.84114 -79.95306 35075 ft 492 kts 47°
2026-05-04 22:09 34.87734 -79.89882 35064 ft 492 kts 47°
2026-05-04 22:09 34.92058 -79.83419 35058 ft 492 kts 47°
2026-05-04 22:10 34.96384 -79.76952 35052 ft 492 kts 47°
2026-05-04 22:10 35.00708 -79.70466 35045 ft 493 kts 47°
2026-05-04 22:11 35.05027 -79.63963 35010 ft 493 kts 47°
2026-05-04 22:11 35.09345 -79.57461 35022 ft 493 kts 47°
2026-05-04 22:12 35.13664 -79.50948 35019 ft 493 kts 47°
2026-05-04 22:12 35.17975 -79.44419 35054 ft 493 kts 47°
2026-05-04 22:13 35.22258 -79.37926 35048 ft 494 kts 47°
2026-05-04 22:13 35.26573 -79.31377 35042 ft 495 kts 47°
2026-05-04 22:14 35.30889 -79.24814 35059 ft 495 kts 47°
2026-05-04 22:14 35.35203 -79.18245 35053 ft 495 kts 47°
2026-05-04 22:15 35.39517 -79.11665 35035 ft 495 kts 47°
2026-05-04 22:15 35.43828 -79.05077 35035 ft 495 kts 47°
2026-05-04 22:16 35.48132 -78.98484 35030 ft 496 kts 47°
2026-05-04 22:16 35.52437 -78.91870 35029 ft 496 kts 47°
2026-05-04 22:17 35.56737 -78.85241 35028 ft 496 kts 47°
2026-05-04 22:17 35.61383 -78.79061 35030 ft 488 kts 34°
2026-05-04 22:18 35.67019 -78.74629 35034 ft 479 kts 23°
2026-05-04 22:18 35.72827 -78.70605 35066 ft 480 kts 24°
2026-05-04 22:19 35.78637 -78.66553 35039 ft 480 kts 24°
2026-05-04 22:19 35.84452 -78.62485 35026 ft 481 kts 24°
2026-05-04 22:20 35.90272 -78.58417 35027 ft 481 kts 24°
2026-05-04 22:20 35.96097 -78.54345 35059 ft 481 kts 24°
2026-05-04 22:21 36.01921 -78.50260 35049 ft 481 kts 24°
2026-05-04 22:21 36.07738 -78.46166 35045 ft 482 kts 24°
2026-05-04 22:22 36.13564 -78.42070 35043 ft 482 kts 24°
2026-05-04 22:22 36.19389 -78.37964 35063 ft 482 kts 23°
2026-05-04 22:23 36.25207 -78.33855 35015 ft 481 kts 23°
2026-05-04 22:23 36.31027 -78.29746 35007 ft 481 kts 23°
2026-05-04 22:24 36.36823 -78.25561 34996 ft 485 kts 28°
2026-05-04 22:24 36.39484 -78.22955 35176 ft 491 kts 38°
2026-05-04 22:24 36.41939 -78.20033 35659 ft 487 kts 38°
2026-05-04 22:24 36.44387 -78.17142 35994 ft 485 kts 38°
2026-05-04 22:25 36.46838 -78.14275 36283 ft 483 kts 37°
2026-05-04 22:25 36.49291 -78.11421 36547 ft 483 kts 37°
2026-05-04 22:25 36.51747 -78.08563 36697 ft 485 kts 38°
2026-05-04 22:25 36.54209 -78.05684 36832 ft 487 kts 38°
2026-05-04 22:26 36.56670 -78.02788 37031 ft 488 kts 38°
2026-05-04 22:26 36.61604 -77.96950 37056 ft 491 kts 38°
2026-05-04 22:27 36.66556 -77.91097 37049 ft 491 kts 38°
2026-05-04 22:27 36.71512 -77.85241 37037 ft 491 kts 38°
2026-05-04 22:28 36.76456 -77.79359 36995 ft 491 kts 38°
2026-05-04 22:28 36.81396 -77.73460 37001 ft 492 kts 38°
2026-05-04 22:29 36.86350 -77.67576 37025 ft 491 kts 38°
2026-05-04 22:29 36.91255 -77.61728 37018 ft 491 kts 38°
2026-05-04 22:30 36.96186 -77.55825 36998 ft 491 kts 38°
2026-05-04 22:30 37.01116 -77.49920 36999 ft 491 kts 38°
2026-05-04 22:31 37.06047 -77.44010 37035 ft 491 kts 39°
2026-05-04 22:31 37.11399 -77.38900 37020 ft 478 kts 22°
2026-05-04 22:32 37.17477 -77.35848 37013 ft 468 kts 12°
2026-05-04 22:32 37.23639 -77.33200 37008 ft 469 kts 13°
2026-05-04 22:33 37.29802 -77.30518 37024 ft 469 kts 13°
2026-05-04 22:33 37.35957 -77.27834 36997 ft 468 kts 13°
2026-05-04 22:34 37.42101 -77.25148 36987 ft 467 kts 13°
2026-05-04 22:34 37.48239 -77.22472 36978 ft 467 kts 13°
2026-05-04 22:35 37.54368 -77.19799 36995 ft 466 kts 14°
2026-05-04 22:35 37.60496 -77.17121 36989 ft 465 kts 14°
2026-05-04 22:36 37.66609 -77.14433 36986 ft 465 kts 14°
2026-05-04 22:36 37.72525 -77.11016 36987 ft 471 kts 24°
2026-05-04 22:37 37.78266 -77.07036 36986 ft 471 kts 24°
2026-05-04 22:37 37.84014 -77.03061 36982 ft 471 kts 24°
2026-05-04 22:38 37.89764 -76.99078 36985 ft 471 kts 24°
2026-05-04 22:38 37.95507 -76.95087 36996 ft 470 kts 25°
2026-05-04 22:39 38.01237 -76.91103 36970 ft 469 kts 25°
2026-05-04 22:39 38.06944 -76.87133 36970 ft 468 kts 25°
2026-05-04 22:40 38.12608 -76.83177 36963 ft 467 kts 25°
2026-05-04 22:40 38.18300 -76.79195 36977 ft 467 kts 25°
2026-05-04 22:41 38.23960 -76.75157 36962 ft 468 kts 30°
2026-05-04 22:41 38.29061 -76.69964 36962 ft 471 kts 37°
2026-05-04 22:42 38.34052 -76.64566 36963 ft 470 kts 37°
2026-05-04 22:42 38.39048 -76.59185 36984 ft 470 kts 37°
2026-05-04 22:43 38.44031 -76.53804 36976 ft 469 kts 37°
2026-05-04 22:43 38.49019 -76.48451 36974 ft 468 kts 36°
2026-05-04 22:44 38.54014 -76.43095 36961 ft 469 kts 36°
2026-05-04 22:44 38.59009 -76.37721 36975 ft 469 kts 36°
2026-05-04 22:45 38.63988 -76.32340 36977 ft 469 kts 37°
2026-05-04 22:45 38.71450 -76.24247 36965 ft 468 kts 37°
2026-05-04 22:46 38.76422 -76.18852 36979 ft 468 kts 37°
2026-05-04 22:46 38.81389 -76.13450 36961 ft 468 kts 37°
2026-05-04 22:47 38.86355 -76.08051 36959 ft 468 kts 37°
2026-05-04 22:47 38.91318 -76.02647 36960 ft 468 kts 37°
2026-05-04 22:48 38.96276 -75.97232 36977 ft 468 kts 37°
2026-05-04 22:48 39.01123 -75.91633 36955 ft 469 kts 40°
2026-05-04 22:49 39.05862 -75.85872 36947 ft 469 kts 40°
2026-05-04 22:49 39.10568 -75.80165 36938 ft 468 kts 40°
2026-05-04 22:50 39.15340 -75.74456 36951 ft 468 kts 39°
2026-05-04 22:50 39.20119 -75.68755 36944 ft 468 kts 40°
2026-05-04 22:51 39.24885 -75.63044 36941 ft 467 kts 40°
2026-05-04 22:51 39.29643 -75.57329 36938 ft 467 kts 40°
2026-05-04 22:52 39.34388 -75.51606 36958 ft 467 kts 40°
2026-05-04 22:52 39.39130 -75.45873 36957 ft 466 kts 40°
2026-05-04 22:53 39.43866 -75.40139 36953 ft 466 kts 39°
2026-05-04 22:53 39.48593 -75.34412 36950 ft 466 kts 39°
2026-05-04 22:54 39.52525 -75.29645 36946 ft 466 kts 39°
2026-05-04 22:54 39.57251 -75.23908 36953 ft 465 kts 39°
2026-05-04 22:55 39.61965 -75.18168 36951 ft 465 kts 39°
2026-05-04 22:55 39.66671 -75.12414 36950 ft 465 kts 39°
2026-05-04 22:56 39.71448 -75.06773 36952 ft 463 kts 37°
2026-05-04 22:56 39.76348 -75.01345 36943 ft 463 kts 36°
2026-05-04 22:57 39.81258 -74.95924 36940 ft 464 kts 37°
2026-05-04 22:57 39.86141 -74.90424 36940 ft 464 kts 37°
2026-05-04 22:58 39.91046 -74.85061 36957 ft 461 kts 31°
2026-05-04 22:58 39.96306 -74.80209 36955 ft 460 kts 31°
2026-05-04 22:59 40.01541 -74.75400 36952 ft 460 kts 31°
2026-05-04 22:59 40.06243 -74.69695 36951 ft 466 kts 44°
2026-05-04 23:00 40.10594 -74.63424 36880 ft 466 kts 44°
2026-05-04 23:00 40.12768 -74.60292 36605 ft 465 kts 44°
2026-05-04 23:00 40.14936 -74.57167 36316 ft 463 kts 44°
2026-05-04 23:01 40.17091 -74.54056 36035 ft 459 kts 44°
2026-05-04 23:01 40.19241 -74.50958 35768 ft 464 kts 43°
2026-05-04 23:01 40.21605 -74.48052 35483 ft 465 kts 35°
2026-05-04 23:01 40.24094 -74.45416 35220 ft 457 kts 35°
2026-05-04 23:02 40.26548 -74.42798 34952 ft 453 kts 35°
2026-05-04 23:02 40.28985 -74.40187 34710 ft 451 kts 35°
2026-05-04 23:02 40.31402 -74.37591 34446 ft 448 kts 34°
2026-05-04 23:02 40.33801 -74.35013 34185 ft 445 kts 34°
2026-05-04 23:03 40.36196 -74.32442 33917 ft 444 kts 34°
2026-05-04 23:03 40.38583 -74.29884 33599 ft 443 kts 34°
2026-05-04 23:03 40.40969 -74.27326 33293 ft 443 kts 34°
2026-05-04 23:03 40.43359 -74.24761 32993 ft 444 kts 34°
2026-05-04 23:04 40.45754 -74.22188 32690 ft 445 kts 34°
2026-05-04 23:04 40.48148 -74.19610 32417 ft 446 kts 34°
2026-05-04 23:04 40.50518 -74.17053 32129 ft 447 kts 35°
2026-05-04 23:04 40.52779 -74.14206 31851 ft 454 kts 44°
2026-05-04 23:05 40.54714 -74.10835 31544 ft 461 kts 53°
2026-05-04 23:05 40.56219 -74.07073 31266 ft 468 kts 63°
2026-05-04 23:05 40.57270 -74.03064 30999 ft 473 kts 69°
2026-05-04 23:05 40.58228 -73.98918 30722 ft 474 kts 69°
2026-05-04 23:06 40.59192 -73.94762 30451 ft 475 kts 69°
2026-05-04 23:06 40.60160 -73.90609 30185 ft 476 kts 69°
2026-05-04 23:06 40.61133 -73.86439 29907 ft 477 kts 69°
2026-05-04 23:06 40.62133 -73.82269 29587 ft 477 kts 66°
2026-05-04 23:07 40.63465 -73.78290 29283 ft 473 kts 57°
2026-05-04 23:07 40.65202 -73.74636 28973 ft 469 kts 49°
2026-05-04 23:07 40.67274 -73.71352 28665 ft 466 kts 43°
2026-05-04 23:07 40.69451 -73.68171 28362 ft 468 kts 44°
2026-05-04 23:08 40.71629 -73.64975 28060 ft 469 kts 44°
2026-05-04 23:08 40.73810 -73.61772 27762 ft 470 kts 44°
2026-05-04 23:08 40.75996 -73.58560 27474 ft 471 kts 44°
2026-05-04 23:08 40.78187 -73.55341 27174 ft 472 kts 44°
2026-05-04 23:09 40.80381 -73.52121 26941 ft 473 kts 44°
2026-05-04 23:09 40.82586 -73.48884 26899 ft 475 kts 44°
2026-05-04 23:09 40.84801 -73.45627 26906 ft 477 kts 44°
2026-05-04 23:09 40.87013 -73.42364 26915 ft 477 kts 44°
2026-05-04 23:10 40.89224 -73.39093 26910 ft 477 kts 44°
2026-05-04 23:10 40.91434 -73.35820 26914 ft 477 kts 44°
2026-05-04 23:10 40.93640 -73.32552 26907 ft 477 kts 44°
2026-05-04 23:10 40.95854 -73.29278 26916 ft 477 kts 44°
2026-05-04 23:11 40.98070 -73.26006 26911 ft 477 kts 43°
2026-05-04 23:11 41.00289 -73.22737 26902 ft 477 kts 43°
2026-05-04 23:11 41.02506 -73.19467 26897 ft 477 kts 43°
2026-05-04 23:11 41.04721 -73.16189 26895 ft 477 kts 44°
2026-05-04 23:12 41.06923 -73.12915 26778 ft 470 kts 44°
2026-05-04 23:12 41.09061 -73.09715 26525 ft 459 kts 44°
2026-05-04 23:12 41.11163 -73.06565 26145 ft 453 kts 44°
2026-05-04 23:12 41.13217 -73.03494 25456 ft 449 kts 44°
2026-05-04 23:13 41.15282 -73.00404 24798 ft 446 kts 44°
2026-05-04 23:13 41.17362 -72.97291 24125 ft 443 kts 44°
2026-05-04 23:13 41.19400 -72.94232 23472 ft 441 kts 44°
2026-05-04 23:13 41.21243 -72.90993 23009 ft 440 kts 53°
2026-05-04 23:14 41.22706 -72.87461 22870 ft 444 kts 59°
2026-05-04 23:14 41.24111 -72.83804 22908 ft 445 kts 59°
2026-05-04 23:14 41.25523 -72.80142 22905 ft 445 kts 59°
2026-05-04 23:14 41.26929 -72.76475 22905 ft 445 kts 59°
2026-05-04 23:15 41.28332 -72.72804 22909 ft 445 kts 59°
2026-05-04 23:15 41.29733 -72.69133 22918 ft 445 kts 59°
2026-05-04 23:15 41.31149 -72.65471 22928 ft 445 kts 59°
2026-05-04 23:15 41.32564 -72.61802 22931 ft 446 kts 59°
2026-05-04 23:16 41.33962 -72.58118 22929 ft 446 kts 59°
2026-05-04 23:16 41.35349 -72.54426 22922 ft 446 kts 59°
2026-05-04 23:16 41.36733 -72.50732 22930 ft 446 kts 59°
2026-05-04 23:16 41.38120 -72.47041 22924 ft 446 kts 59°
2026-05-04 23:17 41.39509 -72.43359 22917 ft 446 kts 59°
2026-05-04 23:17 41.40900 -72.39667 22910 ft 446 kts 59°
2026-05-04 23:17 41.42293 -72.35976 22682 ft 445 kts 59°
2026-05-04 23:17 41.43680 -72.32293 22403 ft 444 kts 59°
2026-05-04 23:18 41.45060 -72.28620 22139 ft 442 kts 59°
2026-05-04 23:18 41.46434 -72.24959 21881 ft 441 kts 60°
2026-05-04 23:18 41.47800 -72.21319 21610 ft 439 kts 60°
2026-05-04 23:18 41.49160 -72.17685 21345 ft 437 kts 60°
2026-05-04 23:19 41.50503 -72.14053 21083 ft 436 kts 60°
2026-05-04 23:19 41.51820 -72.10442 20825 ft 426 kts 60°
2026-05-04 23:19 41.53091 -72.06925 20573 ft 417 kts 61°
2026-05-04 23:19 41.54334 -72.03471 20320 ft 408 kts 61°
2026-05-04 23:20 41.55552 -72.00089 20068 ft 401 kts 61°
2026-05-04 23:20 41.56679 -71.96749 19828 ft 399 kts 64°
2026-05-04 23:20 41.57750 -71.93280 19584 ft 398 kts 65°
2026-05-04 23:20 41.58756 -71.89839 19345 ft 397 kts 66°
2026-05-04 23:21 41.59726 -71.86444 19106 ft 396 kts 66°
2026-05-04 23:21 41.60720 -71.82969 18863 ft 394 kts 66°
2026-05-04 23:21 41.61695 -71.79601 18630 ft 393 kts 66°
2026-05-04 23:21 41.62692 -71.76207 18392 ft 392 kts 66°
2026-05-04 23:22 41.63690 -71.72824 18147 ft 391 kts 66°
2026-05-04 23:22 41.64687 -71.69445 17877 ft 390 kts 66°
2026-05-04 23:22 41.65677 -71.66078 17610 ft 388 kts 66°
2026-05-04 23:22 41.66658 -71.62735 17338 ft 382 kts 66°
2026-05-04 23:23 41.67625 -71.59429 17063 ft 373 kts 66°
2026-05-04 23:23 41.68547 -71.56273 16813 ft 365 kts 66°
2026-05-04 23:23 41.69465 -71.53137 16546 ft 359 kts 66°
2026-05-04 23:23 41.70372 -71.50037 16286 ft 357 kts 66°
2026-05-04 23:24 41.71275 -71.46953 16046 ft 355 kts 66°
2026-05-04 23:24 41.72177 -71.43882 15792 ft 354 kts 64°
2026-05-04 23:24 41.73312 -71.40985 15540 ft 350 kts 57°
2026-05-04 23:24 41.74528 -71.38162 15288 ft 349 kts 57°
2026-05-04 23:25 41.75738 -71.35351 15044 ft 348 kts 57°
2026-05-04 23:25 41.76943 -71.32542 14798 ft 347 kts 58°
2026-05-04 23:25 41.78140 -71.29738 14555 ft 346 kts 58°
2026-05-04 23:25 41.79330 -71.26940 14302 ft 345 kts 58°
2026-05-04 23:26 41.80517 -71.24144 13903 ft 345 kts 58°
2026-05-04 23:26 41.81692 -71.21382 13712 ft 337 kts 58°
2026-05-04 23:26 41.82844 -71.18675 13278 ft 333 kts 58°
2026-05-04 23:26 41.83984 -71.15994 12724 ft 328 kts 58°
2026-05-04 23:27 41.85105 -71.13356 12223 ft 323 kts 58°
2026-05-04 23:27 41.86209 -71.10755 11938 ft 318 kts 58°
2026-05-04 23:27 41.87313 -71.08191 11839 ft 318 kts 58°
2026-05-04 23:27 41.88422 -71.05627 11699 ft 318 kts 58°
2026-05-04 23:28 41.89528 -71.03073 11564 ft 316 kts 58°
2026-05-04 23:28 41.90634 -71.00525 11417 ft 316 kts 57°
2026-05-04 23:28 41.91735 -70.97981 11277 ft 314 kts 57°
2026-05-04 23:28 41.92830 -70.95445 11141 ft 314 kts 57°
2026-05-04 23:29 41.93922 -70.92916 10995 ft 312 kts 57°
2026-05-04 23:29 41.95005 -70.90393 10856 ft 311 kts 57°
2026-05-04 23:29 41.96082 -70.87873 10704 ft 311 kts 57°
2026-05-04 23:29 41.97157 -70.85367 10570 ft 309 kts 57°
2026-05-04 23:30 41.98230 -70.82870 10430 ft 308 kts 57°
2026-05-04 23:30 41.99297 -70.80380 10294 ft 307 kts 57°
2026-05-04 23:30 42.00362 -70.77895 10170 ft 307 kts 57°
2026-05-04 23:30 42.01556 -70.75547 9976 ft 303 kts 45°
2026-05-04 23:31 42.02952 -70.73445 9663 ft 300 kts 44°
2026-05-04 23:31 42.04345 -70.71365 9364 ft 298 kts 44°
2026-05-04 23:31 42.05730 -70.69296 9088 ft 298 kts 44°
2026-05-04 23:31 42.07113 -70.67232 8800 ft 297 kts 44°
2026-05-04 23:32 42.08473 -70.65193 8513 ft 296 kts 44°
2026-05-04 23:32 42.09903 -70.63217 8240 ft 292 kts 35°
2026-05-04 23:32 42.11594 -70.61759 7969 ft 287 kts 20°
2026-05-04 23:32 42.13459 -70.60913 7702 ft 280 kts
2026-05-04 23:33 42.15370 -70.60390 7434 ft 280 kts
2026-05-04 23:33 42.17279 -70.59864 7177 ft 279 kts
2026-05-04 23:33 42.19171 -70.59338 6892 ft 278 kts
2026-05-04 23:33 42.21065 -70.58811 6627 ft 278 kts
2026-05-04 23:34 42.22956 -70.58280 6363 ft 277 kts
2026-05-04 23:34 42.24845 -70.57749 6077 ft 277 kts
2026-05-04 23:34 42.26732 -70.57217 5810 ft 277 kts
2026-05-04 23:34 42.28617 -70.56687 5546 ft 276 kts
2026-05-04 23:35 42.30504 -70.56308 5285 ft 271 kts 354°
2026-05-04 23:35 42.32335 -70.56634 5083 ft 263 kts 337°
2026-05-04 23:35 42.33972 -70.57637 5029 ft 256 kts 321°
2026-05-04 23:35 42.35322 -70.59161 5029 ft 252 kts 310°
2026-05-04 23:36 42.36575 -70.60814 5027 ft 252 kts 310°
2026-05-04 23:36 42.37836 -70.62468 5018 ft 253 kts 311°
2026-05-04 23:36 42.39100 -70.64126 5016 ft 253 kts 311°
2026-05-04 23:36 42.40367 -70.65786 5009 ft 254 kts 311°
2026-05-04 23:37 42.41635 -70.67447 5002 ft 254 kts 311°
2026-05-04 23:37 42.42901 -70.69107 4924 ft 252 kts 311°
2026-05-04 23:37 42.44159 -70.70758 4609 ft 251 kts 311°
2026-05-04 23:37 42.45399 -70.72390 4441 ft 245 kts 310°
2026-05-04 23:38 42.46608 -70.73982 4164 ft 240 kts 310°
2026-05-04 23:38 42.47800 -70.75555 3585 ft 239 kts 310°
2026-05-04 23:38 42.48992 -70.77135 2999 ft 240 kts 310°
2026-05-04 23:38 42.50125 -70.78772 2451 ft 232 kts 295°
2026-05-04 23:39 42.50785 -70.80632 2312 ft 209 kts 287°
2026-05-04 23:39 42.51313 -70.82375 2177 ft 191 kts 286°
2026-05-04 23:39 42.51805 -70.83990 2101 ft 180 kts 286°
2026-05-04 23:39 42.52280 -70.85524 2014 ft 175 kts 286°
2026-05-04 23:40 42.52661 -70.87054 1978 ft 167 kts 268°
2026-05-04 23:40 42.52370 -70.88513 1980 ft 162 kts 240°
2026-05-04 23:40 42.52006 -70.89369 1981 ft 156 kts 237°
2026-05-04 23:40 42.51437 -70.90595 1981 ft 152 kts 236°
2026-05-04 23:41 42.50875 -70.91801 1991 ft 152 kts 236°
2026-05-04 23:41 42.50306 -70.93025 1991 ft 153 kts 236°
2026-05-04 23:41 42.49592 -70.94078 1990 ft 154 kts 214°
2026-05-04 23:41 42.48601 -70.94638 1987 ft 157 kts 203°
2026-05-04 23:42 42.47574 -70.95135 1972 ft 157 kts 204°
2026-05-04 23:42 42.46544 -70.95634 1865 ft 156 kts 203°
2026-05-04 23:42 42.45524 -70.96129 1696 ft 156 kts 204°
2026-05-04 23:42 42.44516 -70.96618 1499 ft 151 kts 204°
2026-05-04 23:43 42.43542 -70.97089 1305 ft 145 kts 204°
2026-05-04 23:43 42.42621 -70.97536 1110 ft 138 kts 202°
2026-05-04 23:43 42.41734 -70.97966 941 ft 133 kts 203°
2026-05-04 23:43 42.40866 -70.98388 760 ft 133 kts 201°
2026-05-04 23:44 42.40004 -70.98806 606 ft 131 kts 199°
2026-05-04 23:44 42.39144 -70.99222 434 ft 135 kts 198°
2026-05-04 23:44 42.38270 -70.99642 272 ft 133 kts 199°
2026-05-04 23:44 42.37412 -71.00065 58 ft 131 kts 200°
2026-05-04 23:45 42.36617 -71.00452 26 ft 105 kts 199°
2026-05-04 23:45 42.36089 -71.00707 27 ft 56 kts 199°
2026-05-04 23:45 42.35826 -71.00833 26 ft 26 kts 199°
2026-05-04 23:45 42.35665 -71.00909 25 ft 21 kts 204°
2026-05-04 23:46 42.35636 -71.01061 25 ft 18 kts 279°
2026-05-04 23:46 42.35696 -71.01220 27 ft 20 kts 309°
2026-05-04 23:46 42.35764 -71.01397 25 ft 22 kts 290°
2026-05-04 23:46 42.35805 -71.01549 25 ft 15 kts 290°
2026-05-04 23:47 42.35826 -71.01645 27 ft 8 kts 292°
2026-05-04 23:47 42.35885 -71.01649 25 ft 10 kts 18°
2026-05-04 23:47 42.35960 -71.01614 25 ft 13 kts 19°
2026-05-04 23:47 42.36053 -71.01570 27 ft 15 kts 19°
2026-05-04 23:48 42.36162 -71.01516 28 ft 18 kts 20°
2026-05-04 23:48 42.36285 -71.01456 27 ft 20 kts 19°
2026-05-04 23:48 42.36415 -71.01394 27 ft 14 kts 20°
2026-05-04 23:48 42.36499 -71.01348 27 ft 13 kts 24°
2026-05-04 23:49 42.36584 -71.01293 27 ft 14 kts 21°
2026-05-04 23:49 42.36652 -71.01265 28 ft 6 kts 15°
2026-05-04 23:49 42.36697 -71.01265 27 ft 6 kts 338°
2026-05-04 23:49 42.36722 -71.01306 28 ft 4 kts 302°
2026-05-04 23:50 42.36737 -71.01351 27 ft 6 kts 293°
2026-05-04 23:50 42.36746 -71.01378 26 ft 2 kts 295°
2026-05-04 23:50 42.36751 -71.01390 26 ft 0 kts 295°